クリステンセン彗星

164P/Christensen (2004)

English version
Home page
Updated on May 25, 2005

---------------------------------------------------------------------

・ プロフィール

符号 164P/2004 Y1
発見日 2004年12月21日
発見光度 16.5等
発見者 Eric J. Christensen (Catalina Sky Survey)

・ 写真集

・ 軌道要素

Epoch 2004 June 4.0 TT = JDT 2453160.5
T 2004 June 21.89346 TT                                 MPC
q   1.6457528            (2000.0)            P               Q
n   0.14260454     Peri.  325.45198     +0.56315035     -0.77760619
a   3.6283888      Node    88.69002     +0.80716140     +0.44511421
e   0.5464233      Incl.   16.24220     +0.17706541     +0.44407425
P   6.91
>From 129 observations 1998 Jan. 24-2005 Jan. 21, mean residual 0".96.

・ 星図

・ 光度変化

        m1 = 11.5 + 5 logΔ + 10.0 log r

---------------------------------------------------------------------

軌道要素はM.P.E.C. 2005-B45に掲載されたものです。
星図は StellaNavigator Ver.2.0 for Windows (アストロアーツ 編著 / アスキー出版局刊) で作成したものです。
光度グラフはComet for Windowsで作成したものです。

---------------------------------------------------------------------

Copyright(C) Seiichi Yoshida (comet@aerith.net). All rights reserved.